Location: Atherton
(17.2661°S, 145.4859°E)
Time: 06:16:30
(UTC+10:00)

Tiros 1 despin weight - All Passes

Search period start: 18 June 2025 00:00
Search period end: 28 June 2025 00:00
Orbit: 563 x 601 km, 48.2° (Epoch: 16 June)

Date Brightness Start Highest point End Pass type
(mag) Time Alt. Az. Time Alt. Az. Time Alt. Az.
18 Jun - 01:21:11 10° NNW 01:25:33 65° NE 01:30:00 10° SE night (unlit)
18 Jun - 03:04:28 10° WSW 03:06:32 13° SW 03:08:36 10° SSW night (unlit)
18 Jun - 09:56:49 10° S 09:59:16 14° SE 10:01:40 10° ESE daylight
18 Jun - 11:35:53 10° SW 11:40:09 53° NW 11:44:20 10° NNE daylight
18 Jun - 23:49:05 10° NE 23:49:52 10° NE 23:50:40 10° ENE night (unlit)
19 Jun - 01:25:53 10° NW 01:30:15 62° SW 01:34:41 10° SE night (unlit)
19 Jun - 10:00:28 10° SSW 10:04:09 25° SE 10:07:46 10° E daylight
19 Jun - 11:41:06 10° WSW 11:44:46 26° NW 11:48:22 10° N daylight
19 Jun - 23:51:07 10° N 23:54:27 21° NE 23:57:49 10° ESE night (unlit)
20 Jun - 01:31:02 10° WNW 01:35:00 32° SW 01:39:01 10° SSE night (unlit)
20 Jun - 10:04:39 10° SSW 10:08:56 48° SE 10:13:06 10° ENE daylight
20 Jun - 11:47:16 10° W 11:49:21 13° NW 11:51:24 10° NNW daylight
20 Jun - 23:54:54 10° NNW 23:59:02 41° NE 00:03:14 10° ESE night (unlit)
21 Jun - 01:36:46 10° W 01:39:50 18° SW 01:42:55 10° S night (unlit)
21 Jun - 08:32:03 10° SSE 08:32:32 10° SE 08:33:01 10° SE daylight
21 Jun - 10:09:12 10° SW 10:13:38 84° NW 10:17:57 10° NE daylight
21 Jun - 23:59:17 10° NW 00:03:39 86° NE 00:08:08 10° SE night (unlit)
22 Jun - 01:44:13 10° SW 01:44:46 10° SW 01:45:19 10° SSW night (unlit)
22 Jun - 08:34:24 10° S 08:37:28 18° SE 08:40:30 10° E daylight
22 Jun - 10:14:07 10° WSW 10:18:15 40° NW 10:22:18 10° NNE daylight
22 Jun - 22:25:41 10° NNE 22:27:56 14° NE 22:30:11 10° E night (unlit)
23 Jun - 00:04:07 10° WNW 00:08:21 47° SW 00:12:40 10° SSE night (unlit)
23 Jun - 08:38:18 10° SSW 08:42:17 32° SE 08:46:13 10° ENE daylight
23 Jun - 10:19:34 10° W 10:22:49 20° NW 10:26:03 10° N daylight
23 Jun - 22:28:48 10° N 22:32:29 27° NE 22:36:14 10° ESE night (unlit)
24 Jun - 00:09:27 10° W 00:13:07 25° SW 00:16:50 10° SSE night (unlit)
24 Jun - 08:42:37 10° SW 08:47:01 63° SE 08:51:20 10° NE daylight
24 Jun - 22:32:49 10° NNW 22:37:04 55° NE 22:41:24 10° SE night (unlit)
25 Jun - 00:15:31 10° WSW 00:17:58 14° SW 00:20:26 10° S night (unlit)
25 Jun - 07:08:38 10° SSE 07:10:41 13° SE 07:12:44 10° ESE daylight
25 Jun - 08:47:16 10° SW 08:51:40 64° NW 08:55:57 10° NNE daylight
25 Jun - 22:37:21 10° NW 22:41:42 73° SW 22:46:08 10° SE night (unlit)
26 Jun - 07:12:01 10° S 07:15:33 23° SE 07:19:03 10° E daylight
26 Jun - 08:52:19 10° WSW 08:56:15 31° NW 09:00:06 10° N daylight
26 Jun - 21:02:58 10° N 21:05:53 18° NE 21:08:52 10° E night (unlit)
26 Jun - 22:42:21 10° WNW 22:46:23 36° SW 22:50:30 10° SSE night (unlit)
27 Jun - 07:16:05 10° SSW 07:20:19 41° SE 07:24:28 10° ENE daylight
27 Jun - 08:58:05 10° W 09:00:47 16° NW 09:03:27 10° NNW daylight
27 Jun - 21:06:30 10° NNW 21:10:26 35° NE 21:14:27 10° ESE night (unlit)
27 Jun - 22:47:54 10° W 22:51:09 20° SW 22:54:28 10° S night (unlit)
